sat.trackr.live / text

‹ back to catalog

STARLINK-31982

NORAD 60022 · 2024-111G

PAYLOAD ACTIVE UNKNOWN

§ Identity

Operator
Country
US
Launch date
2024-06-08
Launch site
AFETR
Launch vehicle
Mass (kg)
RCS (m²)

Purposes: comms

External: N2YO · Heavens-Above · Gunter

§ Orbital elements

Epoch: 2026-09-21T07:48:29.808864Z

Period
93.85 min
Inclination
53.1599°
Eccentricity
0.0001168
Mean motion
15.34385634 rev/d
Perigee alt
461.9 km
Apogee alt
463.5 km
Semi-major
6,840.9 km
B*
-8.2766e-5
RAAN
242.1387°
Arg perigee
87.9497°
Mean anomaly
272.1639°
Rev number
12,906

§ Raw data

STARLINK-319821 60022U 24111G   26264.32534501 -.00003170  00000+0 -82766-4 0  99972 60022  53.1599 242.1387 0001168  87.9497 272.1639 15.34385634129061

JSON: /api/v1/satellites/60022 · /tle

For live sub-satellite position, see the globe view (requires WebGL).

§ Visibility from observer

Set your observer location to see the next 7 days of passes ≥ 10°. The values pass through the URL so the page stays shareable.

No JS? Fill the form by hand. The geolocation button needs JavaScript.